Location: *
(42.4613°S, 176.9107°E)
Time: 11:17:37
(UTC+00:00)

Daily predictions for brighter satellites

Satellite Brightness Start Highest point End
(mag) Time Altitude Azimuth Time Altitude Azimuth Time Altitude Azimuth
USA 215 4.3 14:50:45 10° E 14:56:44 38° SSE 14:56:52 38° SSE
Cosmos 2219 Rocket 4.2 15:06:59 22° E 15:07:01 22° E 15:11:15 10° SE
CZ-4C R/B 3.3 15:16:43 55° SSE 15:16:43 55° SSE 15:22:00 10° SSE
SL-16 R/B 3.8 15:12:22 10° S 15:15:37 33° S 15:15:37 33° S
COSMOS 2428 4.2 15:25:45 29° ENE 15:26:23 30° ENE 15:31:16 10° SE
H-2A R/B 4.3 15:24:10 10° SE 15:26:44 24° ESE 15:26:44 24° ESE
ATLAS 3B CENTAUR R/B 4.5 15:31:14 23° NNE 15:31:14 23° NNE 15:37:57 10° NE
Cosmos 2026 Rocket 4.2 15:34:21 10° S 15:40:47 70° E 15:41:07 68° ENE
ALOS 3.9 15:41:27 10° NE 15:45:39 33° ESE 15:49:55 10° S
Cosmos 1634 Rocket 4.0 15:46:36 77° SE 15:46:36 77° SE 15:52:34 10° S
SL-16 R/B 4.0 15:50:50 20° SSW 15:50:50 20° SSW 15:53:08 10° S
Cosmos 2360 Rocket 3.1 15:53:50 39° S 15:53:50 39° S 15:57:34 10° SSE
BREEZE-M DEB (TANK) 4.3 15:50:26 50° SW 15:52:26 77° SE 16:18:17 10° NE
Cosmos 2322 Rocket 3.9 15:59:05 22° SSW 15:59:05 22° SSW 16:01:38 10° S
Cosmos 1371 Rocket 4.2 16:03:20 64° NE 16:03:20 64° NE 16:07:57 10° NNE
Cosmos 2142 Rocket 4.4 16:03:55 60° N 16:05:10 85° E 16:11:24 10° S
Cosmos 1624 Rocket 4.2 16:00:16 10° SSW 16:05:35 70° ESE 16:10:47 10° NNE
Cosmos 2333 Rocket 2.3 16:05:36 63° NNE 16:06:21 72° ENE 16:12:10 10° SSE
Cosmos 2112 Rocket 4.5 16:12:48 50° SSW 16:12:48 50° SSW 16:17:04 10° SSE
Landsat 5 4.1 16:09:09 10° SSE 16:12:57 55° ESE 16:12:57 55° ESE
CZ-3 R/B 4.1 16:01:43 35° WNW 16:13:50 50° NNW 16:24:03 10° ENE
Cosmos 2237 Rocket 4.1 16:09:13 10° NNE 16:14:00 28° ENE 16:18:48 10° SE
STARLINK-1241 4.5 16:15:11 48° SE 16:15:11 48° SE 16:18:19 10° SE
STARLINK-1122 4.5 16:17:31 46° SSE 16:17:31 46° SSE 16:21:33 10° ENE
STARLINK-1239 4.3 16:19:55 53° SE 16:19:55 53° SE 16:23:15 10° SE
USA 229 DEB 3.6 16:14:24 19° SW 16:19:35 86° SE 16:26:08 10° NE
USA 229 3.6 16:14:26 18° SW 16:19:43 85° SE 16:26:15 10° NE
STARLINK-1126 4.3 16:22:19 49° SSE 16:22:30 49° SSE 16:26:35 10° ENE
STARLINK-1240 4.1 16:24:43 57° SSE 16:24:43 57° SSE 16:28:14 10° SE
Cosmos 2278 Rocket 3.5 16:19:15 10° SSW 16:24:38 40° ESE 16:29:56 10° NE
STARLINK-1082 4.2 16:27:06 50° S 16:27:30 53° SSE 16:31:36 10° ENE
STARLINK-1216 3.9 16:29:31 59° S 16:29:31 59° S 16:33:13 10° SE
NOSS 3-1 (A) 3.6 16:22:50 10° SSW 16:29:15 67° SE 16:34:44 10° NE
Cosmos 1844 4.0 16:31:12 45° NNW 16:31:12 45° NNW 16:35:26 10° N
STARLINK-1100 4.1 16:31:52 51° S 16:32:29 57° SSE 16:36:37 10° ENE
STARLINK-1237 3.9 16:34:17 59° S 16:34:17 59° S 16:38:10 10° SE
Cosmos 2279 Rocket 3.9 16:30:58 30° NNW 16:34:17 70° W 16:40:37 10° S
Cosmos 2056 Rocket 3.5 16:31:51 10° SSW 16:37:17 65° WNW 16:42:40 10° N
STARLINK-1083 4.0 16:36:38 49° SSW 16:37:28 61° SSE 16:41:37 10° ENE
STARLINK-1202 3.8 16:39:04 56° SSW 16:39:04 56° SSW 16:43:09 10° SE
USA 215 3.2 16:32:43 10° NE 16:39:19 85° NW 16:44:14 20° SW
Meteor 2-9 Rocket 4.2 16:33:49 10° N 16:39:30 86° E 16:45:06 10° S
STARLINK-1125 3.9 16:41:25 47° SSW 16:42:27 66° SE 16:46:37 10° ENE
BREEZE-M DEB (TANK) 4.0 16:41:56 26° S 16:42:31 28° SSE 16:47:07 10° ESE
ISS -1.7 16:42:30 21° S 16:43:08 22° SSE 16:45:54 10° ESE
Abrixas rocket 2.9 16:44:15 49° ESE 16:44:15 49° ESE 16:46:37 10° ESE
STARLINK-1109 3.8 16:46:11 44° SW 16:47:26 71° SE 16:51:37 10° ENE
NOSS 2-3 (C) 4.4 16:41:40 10° SW 16:48:41 79° SE 16:53:59 10° NE
STARLINK-1246 4.0 16:48:39 48° SW 16:48:59 49° SSW 16:53:06 10° SE
STARLINK-1203 4.1 16:48:58 44° SW 16:49:20 46° SSW 16:53:29 10° SE
Cosmos 1300 Rocket 3.8 16:45:18 10° N 16:49:42 72° E 16:54:12 10° SSE
Cosmos 2219 Rocket 2.3 16:48:46 40° WNW 16:50:30 55° WSW 16:56:07 10° SSE
STARLINK-1091 3.7 16:50:58 40° SW 16:52:23 77° SE 16:56:35 10° ENE
STARLINK-1224 4.1 16:53:25 43° SW 16:53:58 46° SSW 16:58:03 10° SE
Cosmos 371 Rocket 4.3 16:49:43 10° S 16:54:30 47° ESE 16:59:12 10° NE
NOSS 3-1 (C) 3.4 16:52:56 22° SW 16:56:35 50° WNW 17:01:47 10° NNE
STARLINK-1072 3.6 16:55:48 37° SW 16:57:25 84° SE 17:01:38 10° NE
Okean 2 Rocket 3.0 16:53:21 11° NNW 16:57:44 76° W 17:02:19 10° S
Sich 1 Rocket 3.9 16:57:37 41° WNW 16:58:20 44° WSW 17:02:47 10° S
Cosmos 2151 Rocket 3.8 16:54:31 10° N 16:58:59 76° E 17:03:33 10° SSE
STARLINK-1225 4.2 16:58:13 38° WSW 16:58:59 43° SSW 17:03:02 10° SE
SL-16 R/B 4.3 16:58:16 10° SSW 17:00:42 14° SW 17:00:42 14° SW
STARLINK-1096 3.6 17:00:35 33° SW 17:02:24 89° N 17:06:36 10° NE
CZ-2C R/B 3.2 16:59:53 10° S 17:02:42 63° E 17:10:12 10° N
STARLINK-1230 4.3 17:03:00 34° WSW 17:03:59 40° SSW 17:08:00 10° SE
H-2A R/B 3.1 17:00:08 10° S 17:03:49 28° WSW 17:03:49 28° WSW
Cosmos 1544 3.8 17:04:35 36° WSW 17:04:35 36° WSW 17:07:37 10° S
CZ-4C R/B 4.0 17:01:55 20° WSW 17:04:29 24° SW 17:09:48 10° SSE
Okean O Rocket 1.9 17:00:14 10° NNE 17:04:42 72° ESE 17:09:14 10° S
STARLINK-1079 3.5 17:05:22 30° WSW 17:07:22 83° NW 17:11:34 10° NE
SAR-Lupe-4 4.0 17:05:07 10° S 17:08:34 39° WSW 17:08:51 38° W
STARLINK-1243 4.4 17:07:47 31° WSW 17:08:59 38° SSW 17:12:57 10° SE
PAYLOAD B 4.2 17:03:37 10° N 17:09:12 71° WNW 17:14:54 10° SSW
Cosmos 1975 3.9 17:10:26 27° WSW 17:10:26 27° WSW 17:13:29 10° SSW
COSMOS 2428 3.1 17:07:49 27° WNW 17:10:26 42° WSW 17:15:54 10° SSE
STARLINK-1116 3.5 17:10:09 27° WSW 17:12:20 76° NW 17:16:32 10° NE
Cosmos 1452 Rocket 3.5 17:07:26 10° SSW 17:12:48 86° WNW 17:18:04 10° NNE
NOAA 6 4.0 17:08:19 10° N 17:13:30 76° WNW 17:18:47 10° SSW
NOSS 0 Rocket 3.9 17:07:24 10° NNW 17:13:36 78° WSW 17:19:55 10° SSE
Cosmos 1980 3.7 17:10:36 10° NNW 17:16:17 85° WSW 17:22:02 10° SSE
TIMED 4.5 17:12:33 13° NNW 17:16:28 65° WSW 17:20:53 10° SSE
Meteor 1-21 4.4 17:13:45 10° SSW 17:19:13 48° W 17:24:41 10° NNW
STARLINK-1094 3.6 17:19:43 22° WSW 17:22:17 63° NW 17:26:26 10° NE
FENGYUN 3A 4.3 17:17:38 10° NNW 17:22:22 31° W 17:27:10 10° SW
ALOS 3.2 17:19:08 10° NNW 17:23:05 26° W 17:27:04 10° SW
Cosmos 1356 3.4 17:22:27 10° NNW 17:25:53 63° W 17:29:25 10° S
Cosmos 332 Rocket 4.1 17:21:06 10° SSW 17:25:57 70° ESE 17:30:45 10° NNE
Cosmos 468 4.5 17:20:44 10° NNW 17:26:03 80° WSW 17:31:24 10° SSE
SJ-7 4.4 17:22:16 10° N 17:26:22 65° W 17:30:36 10° SSW
CZ-4B R/B 1.8 17:23:14 10° S 17:26:23 39° WSW 17:29:14 12° NW
STARLINK-1117 3.7 17:24:30 20° WSW 17:27:15 58° NW 17:31:22 10° NE
SMAP 3.4 17:25:40 10° NNE 17:30:19 70° ESE 17:35:03 10° S
STARLINK-1078 3.8 17:29:17 18° WSW 17:32:13 52° NW 17:36:17 10° NE
Helios 1A Rocket 3.1 17:28:27 10° NNE 17:32:34 79° ESE 17:36:48 10° S
SL-16 R/B 3.4 17:28:47 10° N 17:34:12 47° ENE 17:39:41 10° SE
STARLINK-1108 4.0 17:34:05 16° WSW 17:37:11 48° NW 17:41:13 10° NNE
Cosmos 2360 Rocket 4.2 17:35:38 10° WSW 17:37:15 11° SW 17:38:52 10° SSW
STARLINK-1121 4.5 17:35:20 10° SW 17:39:26 48° SSE 17:43:31 10° ENE
Cosmos 1025 Rocket 3.5 17:37:20 10° SSW 17:41:31 40° W 17:45:39 10° NNW
Cosmos 2266 Rocket 4.3 17:35:44 10° SSW 17:41:33 43° W 17:47:25 10° NNW
STARLINK-1071 4.1 17:38:51 14° WSW 17:42:08 43° NW 17:46:06 10° NNE
STARLINK-1106 4.4 17:40:18 10° SW 17:44:26 51° SSE 17:48:33 10° ENE
Okean 1 Rocket 3.1 17:40:34 10° NNW 17:45:04 78° W 17:49:40 10° S
STARLINK-1110 4.2 17:43:39 13° WSW 17:47:05 39° NW 17:51:00 10° NNE
STARLINK-1112 4.3 17:45:16 10° SW 17:49:27 55° SSE 17:53:34 10° ENE
Okean-O 4.1 17:45:33 10° NE 17:49:45 41° ESE 17:54:00 10° S
Cosmos 2333 Rocket 3.6 17:47:40 12° W 17:51:15 21° SW 17:55:32 10° S
STARLINK-1124 4.4 17:48:25 11° WSW 17:52:01 36° NW 17:55:52 10° NNE
BREEZE M DEB (TANK) 3.5 17:49:29 12° WNW 17:52:54 71° SSW 18:05:23 10° ESE
Aureole 3 Rocket 3.8 17:49:33 10° N 17:53:05 54° E 17:57:50 10° SSE
STARLINK-1128 4.1 17:50:16 10° SW 17:54:27 60° SSE 17:58:36 10° ENE
Meteor 1-15 Rocket 4.3 17:49:24 10° NNW 17:55:16 82° W 18:01:18 10° S
STARLINK-1122 4.5 17:53:12 10° WSW 17:56:58 33° NW 18:00:44 10° NNE
Radarsat Rocket 4.5 17:51:16 10° N 17:57:08 45° W 18:03:45 10° SSW
Cosmos 2237 Rocket 2.6 17:52:22 10° NW 17:57:49 44° WSW 18:03:18 10° SSE
Cosmos 1766 4.0 17:54:33 10° N 17:58:25 59° E 18:02:20 10° SSE
STARLINK-1113 4.0 17:55:15 10° SW 17:59:28 65° SSE 18:03:38 10° ENE
GP-B 3.1 17:55:56 10° N 18:00:24 67° W 18:04:56 10° S
Cosmos 1536 Rocket 4.5 17:57:10 10° SSW 18:01:02 28° W 18:04:52 10° NNW
Cosmos 304 Rocket 3.8 17:58:29 10° SSW 18:03:24 83° WNW 18:08:15 10° NNE
STARLINK-1119 3.9 18:00:11 10° SW 18:04:25 70° SE 18:08:35 10° ENE
Cosmos 2297 4.0 18:01:44 10° SSW 18:07:32 76° ESE 18:13:12 10° NNE
CZ-4B R/B 4.0 18:02:41 10° NNW 18:07:40 31° W 18:12:42 10° SW
Cosmos 2278 Rocket 2.9 18:03:36 10° SW 18:08:33 31° WNW 18:13:28 10° NNW
STARLINK-1114 3.8 18:05:09 10° SW 18:09:24 75° SE 18:13:35 10° ENE
In-Cosmos 22 4.4 18:04:06 10° SSW 18:09:29 50° W 18:14:56 10° NNW
H-2A R/B 3.6 18:06:22 10° NNW 18:09:51 30° W 18:13:23 10° SSW
Cosmos 494 Rocket 4.1 18:05:53 10° NNW 18:11:03 60° WSW 18:16:15 10° SSE
